Time,TemperatureF,DewpointF,PressureIn,WindDirection,WindDirectionDegrees,WindSpeedMPH,WindSpeedGustMPH,Humidity,HourlyPrecipIn,Conditions,Clouds,dailyrainin,SoftwareType,DateUTC
2013-05-11 00:06:00,67.1,55.0,30.00,SW,225,5.0,16.0,66,0.00,,,0.00,weatherlink.com 1.10,2013-05-11 04:06:00,
2013-05-11 00:21:00,66.8,55.0,30.00,West,267,6.0,13.0,66,0.00,,,0.00,weatherlink.com 1.10,2013-05-11 04:21:00,
2013-05-11 00:36:00,67.0,55.0,30.00,WSW,249,4.0,15.0,66,0.00,,,0.00,weatherlink.com 1.10,2013-05-11 04:36:00,
2013-05-11 00:51:00,66.8,55.0,30.00,SW,223,4.0,11.0,67,0.00,,,0.00,weatherlink.com 1.10,2013-05-11 04:51:00,
2013-05-11 01:06:00,66.9,55.0,30.00,NW,306,8.0,14.0,66,0.00,,,0.00,weatherlink.com 1.10,2013-05-11 05:06:00,
2013-05-11 01:21:00,66.3,55.0,29.99,SSW,207,9.0,13.0,68,0.00,,,0.00,weatherlink.com 1.10,2013-05-11 05:21:00,
2013-05-11 01:36:00,66.0,56.0,29.99,SSW,210,5.0,10.0,69,0.00,,,0.00,weatherlink.com 1.10,2013-05-11 05:36:00,
2013-05-11 01:51:00,66.3,55.0,29.99,WSW,240,7.0,14.0,68,0.00,,,0.00,weatherlink.com 1.10,2013-05-11 05:51:00,
2013-05-11 02:06:00,66.0,56.0,29.98,WNW,285,6.0,13.0,69,0.00,,,0.00,weatherlink.com 1.10,2013-05-11 06:06:00,
2013-05-11 02:21:00,65.6,56.0,29.98,West,270,10.0,13.0,70,0.00,,,0.00,weatherlink.com 1.10,2013-05-11 06:21:00,
2013-05-11 02:36:00,65.4,56.0,29.98,West,264,7.0,14.0,71,0.00,,,0.00,weatherlink.com 1.10,2013-05-11 06:36:00,
2013-05-11 02:51:00,65.2,56.0,29.98,WNW,300,4.0,15.0,72,0.00,,,0.00,weatherlink.com 1.10,2013-05-11 06:51:00,
2013-05-11 03:06:00,65.0,56.0,29.98,SW,229,3.0,13.0,73,0.00,,,0.00,weatherlink.com 1.10,2013-05-11 07:06:00,
2013-05-11 03:21:00,64.7,56.0,29.98,WSW,238,3.0,8.0,74,0.00,,,0.00,weatherlink.com 1.10,2013-05-11 07:21:00,
2013-05-11 03:36:00,64.3,57.0,29.98,SW,228,7.0,10.0,76,0.00,,,0.00,weatherlink.com 1.10,2013-05-11 07:36:00,
2013-05-11 03:52:00,64.1,57.0,29.98,WSW,243,8.0,11.0,77,0.00,,,0.00,weatherlink.com 1.10,2013-05-11 07:52:00,
2013-05-11 04:07:00,63.9,57.0,29.97,West,274,6.0,17.0,78,0.00,,,0.00,weatherlink.com 1.10,2013-05-11 08:07:00,
2013-05-11 04:22:00,63.7,57.0,29.96,WNW,294,3.0,20.0,80,0.00,,,0.00,weatherlink.com 1.10,2013-05-11 08:22:00,
2013-05-11 04:37:00,63.4,58.0,29.97,NW,318,6.0,17.0,81,0.00,,,0.00,weatherlink.com 1.10,2013-05-11 08:37:00,
2013-05-11 04:52:00,62.9,58.0,29.97,WSW,251,5.0,24.0,84,0.00,,,0.00,weatherlink.com 1.10,2013-05-11 08:52:00,
2013-05-11 05:07:00,61.3,58.0,29.97,West,264,4.0,17.0,90,0.00,,,0.00,weatherlink.com 1.10,2013-05-11 09:07:00,
2013-05-11 05:22:00,60.7,58.0,29.96,ENE,71,4.0,13.0,92,0.01,,,0.01,weatherlink.com 1.10,2013-05-11 09:22:00,
2013-05-11 05:37:00,60.4,58.0,29.96,SSW,211,5.0,12.0,93,0.02,,,0.02,weatherlink.com 1.10,2013-05-11 09:37:00,
2013-05-11 05:52:00,60.4,59.0,29.97,WSW,253,4.0,11.0,94,0.02,,,0.02,weatherlink.com 1.10,2013-05-11 09:52:00,
2013-05-11 06:07:00,60.4,59.0,29.97,West,276,5.0,8.0,94,0.02,,,0.02,weatherlink.com 1.10,2013-05-11 10:07:00,
2013-05-11 06:22:00,60.4,59.0,29.96,West,269,5.0,6.0,94,0.00,,,0.02,weatherlink.com 1.10,2013-05-11 10:22:00,
2013-05-11 06:37:00,60.3,59.0,29.97,WSW,255,0.0,5.0,95,0.00,,,0.02,weatherlink.com 1.10,2013-05-11 10:37:00,
2013-05-11 06:52:00,60.3,59.0,29.96,ENE,63,1.0,4.0,95,0.00,,,0.02,weatherlink.com 1.10,2013-05-11 10:52:00,
2013-05-11 07:07:00,60.4,59.0,29.97,WNW,298,1.0,3.0,95,0.00,,,0.02,weatherlink.com 1.10,2013-05-11 11:07:00,
2013-05-11 07:22:00,60.3,59.0,29.97,WNW,293,3.0,6.0,95,0.00,,,0.02,weatherlink.com 1.10,2013-05-11 11:22:00,
2013-05-11 07:37:00,60.4,59.0,29.98,NW,310,2.0,8.0,95,0.00,,,0.02,weatherlink.com 1.10,2013-05-11 11:37:00,
2013-05-11 07:52:00,60.5,59.0,29.98,West,266,6.0,7.0,95,0.00,,,0.02,weatherlink.com 1.10,2013-05-11 11:52:00,
2013-05-11 08:07:00,60.7,59.0,29.98,West,274,3.0,13.0,95,0.00,,,0.02,weatherlink.com 1.10,2013-05-11 12:07:00,
2013-05-11 08:22:00,61.4,59.0,29.97,West,276,5.0,9.0,93,0.00,,,0.02,weatherlink.com 1.10,2013-05-11 12:22:00,
2013-05-11 08:37:00,62.1,60.0,29.98,WSW,248,4.0,12.0,92,0.00,,,0.02,weatherlink.com 1.10,2013-05-11 12:37:00,
2013-05-11 08:52:00,62.3,60.0,29.98,NW,309,2.0,8.0,92,0.00,,,0.02,weatherlink.com 1.10,2013-05-11 12:52:00,
2013-05-11 09:07:00,62.6,60.0,29.97,West,278,5.0,11.0,91,0.00,,,0.02,weatherlink.com 1.10,2013-05-11 13:07:00,
2013-05-11 09:22:00,63.1,61.0,29.98,SW,220,4.0,8.0,91,0.00,,,0.02,weatherlink.com 1.10,2013-05-11 13:22:00,
2013-05-11 09:37:00,63.9,61.0,29.98,South,190,2.0,11.0,90,0.00,,,0.02,weatherlink.com 1.10,2013-05-11 13:37:00,
2013-05-11 09:52:00,64.1,61.0,29.98,WSW,246,3.0,14.0,88,0.00,,,0.02,weatherlink.com 1.10,2013-05-11 13:52:00,
2013-05-11 10:07:00,64.1,61.0,29.98,SSW,207,4.0,13.0,88,0.00,,,0.02,weatherlink.com 1.10,2013-05-11 14:07:00,
2013-05-11 10:22:00,65.1,61.0,29.97,South,174,7.0,10.0,86,0.00,,,0.02,weatherlink.com 1.10,2013-05-11 14:22:00,
2013-05-11 10:37:00,66.6,62.0,29.97,WNW,300,5.0,9.0,84,0.00,,,0.02,weatherlink.com 1.10,2013-05-11 14:37:00,
2013-05-11 10:52:00,65.7,61.0,29.97,West,279,8.0,12.0,85,0.00,,,0.02,weatherlink.com 1.10,2013-05-11 14:52:00,
2013-05-11 11:07:00,65.4,61.0,29.98,SW,224,9.0,13.0,85,0.00,,,0.02,weatherlink.com 1.10,2013-05-11 15:07:00,
2013-05-11 11:22:00,65.5,61.0,29.98,West,271,7.0,10.0,86,0.00,,,0.02,weatherlink.com 1.10,2013-05-11 15:22:00,
2013-05-11 11:38:00,66.4,61.0,29.97,NW,307,2.0,11.0,83,0.00,,,0.02,weatherlink.com 1.10,2013-05-11 15:38:00,
2013-05-11 11:53:00,69.2,61.0,29.97,West,264,4.0,11.0,76,0.00,,,0.02,weatherlink.com 1.10,2013-05-11 15:53:00,
2013-05-11 12:08:00,69.6,60.0,29.97,WNW,287,10.0,13.0,72,0.00,,,0.02,weatherlink.com 1.10,2013-05-11 16:08:00,
2013-05-11 12:23:00,69.0,60.0,29.97,West,270,6.0,13.0,74,0.00,,,0.02,weatherlink.com 1.10,2013-05-11 16:23:00,
2013-05-11 12:38:00,68.5,60.0,29.96,WNW,283,11.0,14.0,74,0.00,,,0.02,weatherlink.com 1.10,2013-05-11 16:38:00,
2013-05-11 12:53:00,68.7,61.0,29.96,NNW,332,6.0,8.0,75,0.00,,,0.02,weatherlink.com 1.10,2013-05-11 16:53:00,
2013-05-11 13:08:00,66.4,62.0,29.96,West,262,2.0,9.0,85,0.02,,,0.04,weatherlink.com 1.10,2013-05-11 17:08:00,
2013-05-11 13:23:00,65.4,63.0,29.96,North,356,1.0,7.0,90,0.02,,,0.04,weatherlink.com 1.10,2013-05-11 17:23:00,
2013-05-11 13:38:00,65.8,63.0,29.97,ENE,60,2.0,10.0,91,0.02,,,0.04,weatherlink.com 1.10,2013-05-11 17:38:00,
2013-05-11 13:53:00,67.2,64.0,29.95,SSE,150,3.0,6.0,88,0.02,,,0.04,weatherlink.com 1.10,2013-05-11 17:53:00,
2013-05-11 14:08:00,69.8,64.0,29.95,NNE,32,1.0,7.0,81,0.00,,,0.04,weatherlink.com 1.10,2013-05-11 18:08:00,
2013-05-11 14:23:00,70.1,64.0,29.94,West,260,2.0,12.0,82,0.00,,,0.04,weatherlink.com 1.10,2013-05-11 18:23:00,
2013-05-11 14:38:00,70.9,65.0,29.94,SE,145,5.0,11.0,81,0.00,,,0.04,weatherlink.com 1.10,2013-05-11 18:38:00,
2013-05-11 14:53:00,70.0,63.0,29.94,West,269,6.0,14.0,77,0.00,,,0.04,weatherlink.com 1.10,2013-05-11 18:53:00,
2013-05-11 15:08:00,69.8,63.0,29.94,West,265,7.0,11.0,78,0.00,,,0.04,weatherlink.com 1.10,2013-05-11 19:08:00,
2013-05-11 15:24:00,71.4,64.0,29.94,WSW,255,2.0,7.0,77,0.00,,,0.04,weatherlink.com 1.10,2013-05-11 19:24:00,
2013-05-11 15:39:00,71.2,63.0,29.93,WSW,238,4.0,8.0,75,0.00,,,0.04,weatherlink.com 1.10,2013-05-11 19:39:00,
2013-05-11 15:54:00,71.8,62.0,29.93,WNW,295,5.0,11.0,70,0.00,,,0.04,weatherlink.com 1.10,2013-05-11 19:54:00,
2013-05-11 16:09:00,72.6,60.0,29.92,WNW,303,4.0,15.0,65,0.00,,,0.04,weatherlink.com 1.10,2013-05-11 20:09:00,
2013-05-11 16:24:00,71.6,62.0,29.91,SW,229,2.0,11.0,71,0.00,,,0.04,weatherlink.com 1.10,2013-05-11 20:24:00,
2013-05-11 16:39:00,72.2,60.0,29.91,WNW,302,12.0,14.0,65,0.00,,,0.04,weatherlink.com 1.10,2013-05-11 20:39:00,
2013-05-11 16:54:00,72.5,58.0,29.91,NW,314,6.0,16.0,61,0.00,,,0.04,weatherlink.com 1.10,2013-05-11 20:54:00,
2013-05-11 17:09:00,72.6,56.0,29.91,WNW,287,13.0,20.0,57,0.00,,,0.04,weatherlink.com 1.10,2013-05-11 21:09:00,
2013-05-11 17:24:00,73.4,56.0,29.92,NNW,327,16.0,26.0,54,0.00,,,0.04,weatherlink.com 1.10,2013-05-11 21:24:00,
2013-05-11 17:39:00,73.3,56.0,29.91,North,3,1.0,25.0,54,0.00,,,0.04,weatherlink.com 1.10,2013-05-11 21:39:00,
2013-05-11 17:54:00,73.1,56.0,29.91,WNW,295,6.0,27.0,55,0.00,,,0.04,weatherlink.com 1.10,2013-05-11 21:54:00,
2013-05-11 18:09:00,73.5,55.0,29.91,WNW,288,14.0,16.0,53,0.00,,,0.04,weatherlink.com 1.10,2013-05-11 22:09:00,
2013-05-11 18:24:00,71.8,55.0,29.91,West,269,5.0,20.0,56,0.00,,,0.04,weatherlink.com 1.10,2013-05-11 22:24:00,
2013-05-11 18:39:00,71.1,57.0,29.92,East,80,3.0,8.0,61,0.00,,,0.04,weatherlink.com 1.10,2013-05-11 22:39:00,
2013-05-11 18:54:00,70.8,57.0,29.92,ENE,72,1.0,13.0,62,0.00,,,0.04,weatherlink.com 1.10,2013-05-11 22:54:00,
2013-05-11 19:09:00,69.5,56.0,29.93,NNW,345,5.0,10.0,62,0.00,,,0.04,weatherlink.com 1.10,2013-05-11 23:09:00,
2013-05-11 19:24:00,68.5,56.0,29.94,ENE,61,4.0,10.0,64,0.00,,,0.04,weatherlink.com 1.10,2013-05-11 23:24:00,
2013-05-11 19:39:00,67.3,55.0,29.95,SE,143,0.0,12.0,64,0.00,,,0.04,weatherlink.com 1.10,2013-05-11 23:39:00,
2013-05-11 19:54:00,66.5,53.0,29.95,North,360,2.0,9.0,63,0.00,,,0.04,weatherlink.com 1.10,2013-05-11 23:54:00,
2013-05-11 20:09:00,65.4,53.0,29.96,NW,314,3.0,15.0,64,0.00,,,0.04,weatherlink.com 1.10,2013-05-12 00:09:00,
2013-05-11 20:24:00,64.4,51.0,29.97,ENE,73,2.0,14.0,63,0.00,,,0.04,weatherlink.com 1.10,2013-05-12 00:24:00,
2013-05-11 20:39:00,63.5,52.0,29.97,NW,323,3.0,9.0,66,0.00,,,0.04,weatherlink.com 1.10,2013-05-12 00:39:00,
2013-05-11 20:54:00,62.8,52.0,29.98,East,82,2.0,11.0,67,0.00,,,0.04,weatherlink.com 1.10,2013-05-12 00:54:00,
2013-05-11 21:09:00,61.8,51.0,29.98,NW,321,5.0,15.0,68,0.00,,,0.04,weatherlink.com 1.10,2013-05-12 01:09:00,
2013-05-11 21:24:00,61.2,50.0,29.99,East,99,2.0,8.0,68,0.00,,,0.04,weatherlink.com 1.10,2013-05-12 01:24:00,
2013-05-11 21:39:00,60.7,50.0,29.99,WNW,302,2.0,14.0,68,0.00,,,0.04,weatherlink.com 1.10,2013-05-12 01:39:00,
2013-05-11 21:54:00,60.1,51.0,30.00,NNW,341,5.0,9.0,71,0.00,,,0.04,weatherlink.com 1.10,2013-05-12 01:54:00,
2013-05-11 22:09:00,59.5,50.0,30.00,NW,315,6.0,8.0,70,0.00,,,0.04,weatherlink.com 1.10,2013-05-12 02:09:00,
2013-05-11 22:24:00,58.9,49.0,30.02,North,357,5.0,7.0,70,0.00,,,0.04,weatherlink.com 1.10,2013-05-12 02:24:00,
2013-05-11 22:39:00,58.4,49.0,30.02,NW,309,6.0,11.0,70,0.00,,,0.04,weatherlink.com 1.10,2013-05-12 02:39:00,
2013-05-11 22:54:00,57.9,49.0,30.03,NNW,337,0.0,4.0,71,0.00,,,0.04,weatherlink.com 1.10,2013-05-12 02:54:00,
2013-05-11 23:09:00,57.4,48.0,30.02,NW,306,2.0,2.0,71,0.00,,,0.04,weatherlink.com 1.10,2013-05-12 03:09:00,
2013-05-11 23:24:00,57.0,48.0,30.04,NNW,348,1.0,4.0,72,0.00,,,0.04,weatherlink.com 1.10,2013-05-12 03:24:00,
2013-05-11 23:39:00,56.5,48.0,30.04,NNW,345,0.0,2.0,73,0.00,,,0.04,weatherlink.com 1.10,2013-05-12 03:39:00,
2013-05-11 23:54:00,56.6,48.0,30.05,West,281,0.0,1.0,72,0.00,,,0.04,weatherlink.com 1.10,2013-05-12 03:54:00,